Regional Weather Roundup
Issued by NWS

Home | Current Version | Previous Version | Graphics & Text | Print | Product List | Glossary On
Versions: 1 2 3 4 5 6 7 8 9 10 11 12 13 14 15 16 17 18 19 20 21 22 23 24 25 26 27 28 29 30 31 32 33 34 35 36 37 38 39 40 41 42 43 44 45 46 47 48 49 50
000
ASUS43 KLMK 290902
RWRKY
KENTUCKY REGIONAL WEATHER ROUNDUP
NATIONAL WEATHER SERVICE LOUISVILLE KY
500 AM EDT SUN MAR 29 2015

NOTE "FAIR" INDICATES FEW OR NO CLOUDS BELOW 12,000 FEET
WITH NO SIGNIFICANT WEATHER AND/OR OBSTRUCTIONS TO VISIBILITY.

KYZ001>023-026-027-061>063-070>075-291000-
WESTERN AND SOUTH CENTRAL KENTUCKY

CITY           SKY/WX    TMP DP  RH WIND       PRES   REMARKS
PADUCAH        CLEAR     31  19  61 SE7       30.28F WCI  24
HENDERSON      CLEAR     19  18  93 SE6       30.30F WCI  11
OWENSBORO      CLEAR     28  20  72 SE6       30.32F WCI  22
HOPKINSVILLE   CLEAR     29  17  61 SE3       30.31F
BOWLING GREEN  CLEAR     25  19  78 CALM      30.34F
GLASGOW        NOT AVBL
$$

KYZ024-025-028>034-038-045-046-053-291000-
NORTH CENTRAL KENTUCKY

CITY           SKY/WX    TMP DP  RH WIND       PRES   REMARKS
LOUISVILLE/SDF CLEAR     28  16  60 SE5       30.35S WCI  23
LOUISVILLE/LOU CLEAR     30  14  51 CALM      30.35F
FORT KNOX      CLEAR     27  15  62 E5        30.31F WCI  21
$$

KYZ035>037-039>044-047>052-055>060-089>105-291000-
NORTHEAST KENTUCKY

CITY           SKY/WX    TMP DP  RH WIND       PRES   REMARKS
LEXINGTON      CLEAR     24  12  60 SE6       30.34S WCI  17
COVINGTON      CLEAR     23  14  68 S5        30.33F WCI  17
FRANKFORT      CLEAR     22  15  75 CALM      30.33F
$$

KYZ054-064>069-076>088-106>120-291000-
SOUTHEAST KENTUCKY

CITY           SKY/WX    TMP DP  RH WIND       PRES   REMARKS
JACKSON        CLEAR     25   9  50 CALM      30.33F
LONDON         CLEAR     24  16  71 CALM      30.34S
SOMERSET       NOT AVBL
MIDDLESBORO    CLEAR     22  19  88 NW3       30.36S
MONTICELLO     SUNNY     17  15  92 CALM      30.37F
$$



USA.gov is the U.S. government's official web portal to all federal, state and local government web resources and services.